Location: Bright Sky Observatory
(40.7821°N, 74.2425°W)
Time: 09:57:47
(UTC-04:00)

Amateur Radio Satellites - All Passes

Search period start: 30 August 2015 09:27
Search period end: 31 August 2015 09:27
Location: Bright Sky Observatory, 40.7821°N, 74.2425°W

Satellite Date Start Highest point End Downlink Frequencies (MHz)
Time Altitude Azimuth
TIGRISAT 30 Aug 09:34:56 09:38:01 18° 66° (ENE) 09:41:16 435.000
Cosmos 2504 30 Aug 09:35:14 09:41:27 23° 63° (ENE) 09:47:45 435.465 / 435.565
PCSat 30 Aug 09:45:32 09:46:59 11° 35° (NE) 09:48:41 145.827
Oscar 11 30 Aug 09:46:52 09:50:22 24° 94° (E) 09:53:55 145.826/435.025
ANTELSAT 30 Aug 09:50:21 09:54:11 26° 68° (ENE) 09:58:09 437.575/2403.000
SEEDS 30 Aug 09:51:00 09:55:13 83° 284° (WNW) 09:59:23 437.485
BRITE-PL 30 Aug 09:51:54 09:56:12 23° 293° (WNW) 10:00:29 437.365/2234.400
Cosmos 2491 30 Aug 09:56:27 10:05:10 81° 279° (W) 10:13:56 435.465 / 435.565
SO-50 30 Aug 09:56:35 10:01:05 34° 48° (NE) 10:05:32 436.795
CINEMA 3 30 Aug 10:14:06 10:19:07 67° 285° (WNW) 10:23:59 145.822/145.860
COMPASS 1 30 Aug 10:16:10 10:20:14 54° 286° (WNW) 10:24:16 437.405
CUBEBUG 2 30 Aug 10:17:02 10:21:43 61° 100° (E) 10:26:14 437.445
VERMONT LUNAR 30 Aug 10:17:48 10:19:04 12° 211° (SSW) 10:20:16 437.305
CUSAT 1 30 Aug 10:21:00 10:27:25 30° 68° (ENE) 10:34:28 437.405
PHONESAT 2.4 30 Aug 10:23:48 10:27:11 68° 193° (SSW) 10:30:35 2401.200-2431.200
HO-68 30 Aug 10:25:18 10:32:17 54° 292° (WNW) 10:39:13 435.675
ZACube-1 30 Aug 10:25:23 10:29:42 43° 98° (E) 10:33:54 437.345
UWE-3 30 Aug 10:27:56 10:32:32 62° 100° (E) 10:36:58 435.000/436.395/437.385
AAUSAT CUBESAT 2 30 Aug 10:28:06 10:32:05 46° 287° (WNW) 10:36:02 437.432
GOMX 1 30 Aug 10:31:05 10:34:34 17° 296° (WNW) 10:37:53 467.674
FUNcube-1 30 Aug 10:31:36 10:35:58 48° 98° (E) 10:40:15 145.935
DANDE 30 Aug 10:35:24 10:41:21 27° 68° (ENE) 10:48:13 436.750
POLYITAN 1 30 Aug 10:35:44 10:39:18 27° 69° (ENE) 10:42:58 437.675
POPSAT HIP 1 30 Aug 10:39:01 10:42:38 28° 70° (ENE) 10:46:21 437.405
UNISAT 6 30 Aug 10:40:19 10:45:00 85° 76° (ENE) 10:49:45 437.425
DUCHIFAT 1 30 Aug 10:41:09 10:44:46 29° 70° (ENE) 10:48:28 145.980
CUTE 1.7 + AOD 2 30 Aug 10:49:29 10:52:10 16° 294° (WNW) 10:54:41 437.475
ISS 30 Aug 10:52:58 10:55:56 32° 333° (NNW) 10:58:55 145.825
AUBIESAT-1 30 Aug 10:53:18 10:57:59 58° 255° (WSW) 11:02:38 437.475
DOVE 4 30 Aug 10:53:52 10:57:06 16° 296° (WNW) 11:00:07 437.250
QB50P2 30 Aug 10:55:02 10:59:04 44° 73° (ENE) 11:03:10 145.880/145.840
M-CUBED/EXP-1 PRIME 30 Aug 10:56:56 11:01:32 46° 257° (WSW) 11:06:08 437.505
BUGSAT 1 30 Aug 10:57:03 11:00:25 26° 69° (ENE) 11:03:53 437.445
NANOSAT C BR1 30 Aug 10:57:31 11:01:32 44° 73° (ENE) 11:05:38 145.865
CANX-2 30 Aug 11:04:50 11:05:44 10° 296° (WNW) 11:06:24 2200.000
DELFI C3 30 Aug 11:05:05 11:09:03 63° 285° (WNW) 11:12:58 145.870
ESTCUBE 1 30 Aug 11:08:04 11:09:54 13° 89° (E) 11:12:00 437.505/2401.250
TIGRISAT 30 Aug 11:09:52 11:14:24 49° 261° (W) 11:18:59 435.000
QB50P1 30 Aug 11:10:13 11:14:24 64° 75° (ENE) 11:18:40 145.935-145.965
YUBILEINY 30 Aug 11:10:22 11:15:02 15° 283° (WNW) 11:19:04 435.215
DX 1 30 Aug 11:11:42 11:15:30 29° 96° (E) 11:19:20 434.975-435.025
Oscar 11 30 Aug 11:22:48 11:26:34 29° 290° (WNW) 11:30:13 145.826/435.025
HUMSAT D 30 Aug 11:25:23 11:29:40 78° 103° (ESE) 11:33:50 437.325/437.525
Cosmos 2504 30 Aug 11:26:14 11:34:48 78° 265° (W) 11:42:49 435.465 / 435.565
PCSat 30 Aug 11:26:22 11:31:43 56° 57° (ENE) 11:37:03 145.827
AISAT 30 Aug 11:26:28 11:30:18 28° 95° (E) 11:34:11 437.250
ANTELSAT 30 Aug 11:26:38 11:30:51 32° 265° (W) 11:35:03 437.575/2403.000
UKube-1 30 Aug 11:27:00 11:31:03 38° 98° (E) 11:35:06 .
CUBEBUG 1 30 Aug 11:33:05 11:36:14 19° 92° (E) 11:39:31 437.445
SO-50 30 Aug 11:37:13 11:41:36 32° 246° (WSW) 11:45:50 436.795
VELOX 1 30 Aug 11:54:50 11:59:13 54° 100° (E) 12:03:36 145.980
CUBEBUG 2 30 Aug 11:55:13 11:57:53 15° 296° (WNW) 12:00:21 437.445
50 SAT 30 Aug 11:56:27 12:00:20 74° 101° (E) 12:04:10 437.505
Cosmos 2491 30 Aug 11:58:28 12:03:46 16° 302° (WNW) 12:08:35 435.465 / 435.565
PHONESAT 2.4 30 Aug 12:02:02 12:04:47 22° 207° (SSW) 12:07:30 2401.200-2431.200
ZACube-1 30 Aug 12:02:33 12:05:44 19° 294° (WNW) 12:08:44 437.345
CUSAT 1 30 Aug 12:02:49 12:10:25 64° 264° (W) 12:18:32 437.405
UWE-3 30 Aug 12:06:03 12:08:33 14° 296° (WNW) 12:10:49 435.000/436.395/437.385
FUNcube-1 30 Aug 12:09:01 12:11:55 17° 295° (WNW) 12:14:37 145.935
POLYITAN 1 30 Aug 12:11:34 12:15:10 26° 266° (W) 12:18:44 437.675
POPSAT HIP 1 30 Aug 12:15:00 12:18:30 24° 266° (W) 12:21:58 437.405
DUCHIFAT 1 30 Aug 12:17:07 12:20:34 24° 266° (W) 12:23:59 145.980
HO-68 30 Aug 12:17:14 12:18:38 10° 310° (NW) 12:19:33 435.675
DANDE 30 Aug 12:17:32 12:24:57 70° 263° (W) 12:33:22 436.750
ISS 30 Aug 12:31:25 12:33:05 13° 352° (N) 12:34:45 145.825
BUGSAT 1 30 Aug 12:32:30 12:35:51 24° 266° (W) 12:39:10 437.445
QB50P2 30 Aug 12:32:36 12:35:14 15° 269° (W) 12:37:44 145.880/145.840
NANOSAT C BR1 30 Aug 12:35:05 12:37:39 15° 269° (W) 12:40:04 145.865
ESTCUBE 1 30 Aug 12:42:48 12:47:15 60° 286° (WNW) 12:51:39 437.505/2401.250
TISAT 1 30 Aug 12:46:26 12:49:38 21° 93° (E) 12:52:56 437.305
DX 1 30 Aug 12:48:01 12:51:39 25° 292° (WNW) 12:55:13 434.975-435.025
QB50P1 30 Aug 12:49:47 12:50:47 10° 272° (W) 12:51:31 145.935-145.965
AISAT 30 Aug 13:02:59 13:06:48 27° 291° (WNW) 13:10:34 437.250
UKube-1 30 Aug 13:03:45 13:06:56 20° 293° (WNW) 13:10:00 .
CUBEBUG 1 30 Aug 13:08:39 13:12:45 37° 288° (WNW) 13:16:48 437.445
SPROUT 30 Aug 13:10:33 13:14:55 72° 101° (ESE) 13:19:14 437.525
PCSat 30 Aug 13:10:50 13:14:45 20° 253° (WSW) 13:18:29 145.827
Oscar 19 30 Aug 13:21:14 13:26:20 65° 74° (ENE) 13:31:30 437.125/150
Cosmos 2504 30 Aug 13:21:27 13:25:40 14° 283° (WNW) 13:29:13 435.465 / 435.565
VELOX 1 30 Aug 13:32:44 13:35:22 15° 295° (WNW) 13:37:50 145.980
CUSAT 1 30 Aug 13:49:05 13:52:02 12° 278° (W) 13:54:24 437.405
Gurwin Techsat 1B 30 Aug 13:49:09 13:53:58 38° 70° (ENE) 13:58:52 435.225
ITUPSAT 1 30 Aug 13:50:31 13:53:36 18° 91° (E) 13:56:52 437.325
GONETS M04 30 Aug 13:57:23 14:05:54 52° 75° (ENE) 14:14:28
DANDE 30 Aug 14:03:45 14:07:23 13° 276° (W) 14:10:35 436.750
Cosmos 2499 30 Aug 14:03:56 14:08:20 15° 56° (NE) 14:13:06 435.465 / 435.565
JAS-2 30 Aug 14:07:18 14:14:04 37° 65° (ENE) 14:21:06 435.910
ISS 30 Aug 14:08:32 14:10:30 15° 13° (NNE) 14:12:29 145.825
ITAMSAT 1 30 Aug 14:16:30 14:21:32 55° 72° (ENE) 14:26:37 435.822/435.867
TISAT 1 30 Aug 14:21:37 14:25:29 33° 289° (WNW) 14:29:17 437.305
BEESAT 30 Aug 14:23:51 14:28:18 39° 98° (E) 14:32:45 436.000
AO-7 30 Aug 14:26:53 14:33:27 28° 57° (ENE) 14:40:12 29.400- 29.500
HORYU 2 30 Aug 14:37:56 14:38:00 10° 62° (ENE) 14:38:20 437.375
RS-15 30 Aug 14:42:15 14:47:22 15° 99° (E) 14:53:28 29.354- 29.394
SPROUT 30 Aug 14:49:01 14:50:27 11° 297° (WNW) 14:51:39 437.525
SWISSCUBE 30 Aug 14:49:20 14:54:07 80° 103° (ESE) 14:58:53 437.505
Oscar 19 30 Aug 15:03:17 15:06:15 15° 271° (W) 15:08:58 437.125/150
BEESAT 3 30 Aug 15:12:40 15:16:24 37° 116° (ESE) 15:20:11 437.485
BEESAT 2 30 Aug 15:22:21 15:26:05 35° 116° (ESE) 15:29:51 435.950
ITUPSAT 1 30 Aug 15:27:13 15:31:49 48° 288° (WNW) 15:36:22 437.325
Gurwin Techsat 1B 30 Aug 15:29:33 15:34:04 27° 266° (W) 15:38:30 435.225
ISS 30 Aug 15:44:20 15:47:29 48° 31° (NNE) 15:50:39 145.825
STARS 30 Aug 15:46:25 15:50:12 27° 95° (E) 15:54:02 437.465
AIST 2 30 Aug 15:49:33 15:51:39 14° 110° (ESE) 15:53:56 435.215
JAS-2 30 Aug 15:51:28 15:58:50 51° 263° (W) 16:06:27 435.910
Cosmos 2499 30 Aug 15:54:42 16:03:28 74° 80° (E) 16:11:37 435.465 / 435.565
GONETS M04 30 Aug 15:54:46 16:02:28 34° 274° (W) 16:10:00
ITAMSAT 1 30 Aug 15:57:58 16:01:28 17° 269° (W) 16:04:45 435.822/435.867
KKS-1 30 Aug 16:00:34 16:05:04 68° 102° (ESE) 16:09:33 437.445
BEESAT 30 Aug 16:02:13 16:05:55 22° 294° (WNW) 16:09:30 436.000
HORYU 2 30 Aug 16:09:30 16:14:01 87° 257° (WSW) 16:18:33 437.375
AO-7 30 Aug 16:17:17 16:25:38 72° 255° (WSW) 16:33:59 29.400- 29.500
SWISSCUBE 30 Aug 16:29:31 16:31:23 12° 298° (WNW) 16:33:00 437.505
RS-15 30 Aug 16:47:09 16:57:58 75° 118° (ESE) 17:09:16 29.354- 29.394
BEESAT 3 30 Aug 16:51:10 16:54:26 22° 314° (NW) 16:57:40 437.485
BEESAT 2 30 Aug 17:00:50 17:04:12 23° 313° (NW) 17:07:32 435.950
ISS 30 Aug 17:21:19 17:23:40 18° 227° (SW) 17:25:57 145.825
STARS 30 Aug 17:22:48 17:26:35 27° 291° (WNW) 17:30:18 437.465
Cubesat XI-IV 30 Aug 17:24:12 17:28:22 25° 66° (ENE) 17:32:40 437.490
AIST 2 30 Aug 17:25:37 17:29:48 57° 305° (NW) 17:34:00 435.215
MOZHAYETS 4 30 Aug 17:38:28 17:43:02 75° 284° (WNW) 17:47:34
KKS-1 30 Aug 17:39:10 17:41:12 13° 297° (WNW) 17:43:00 437.445
Cosmos 2499 30 Aug 17:49:21 17:55:44 23° 279° (W) 18:01:31 435.465 / 435.565
CUBESAT XI-V 30 Aug 17:52:49 17:54:53 13° 88° (E) 17:57:12 437.345
CUTE-I 30 Aug 18:08:24 18:13:37 61° 73° (ENE) 18:18:53 437.470
AO-7 30 Aug 18:16:37 18:20:06 12° 275° (W) 18:22:52 29.400- 29.500
STRAND 1 30 Aug 18:45:06 18:47:01 12° 88° (E) 18:49:14 437.568
AIST 1 30 Aug 19:01:16 19:04:55 27° 74° (ENE) 19:08:38
RS-15 30 Aug 19:01:27 19:11:32 37° 324° (NW) 19:21:54 29.354- 29.394
Cubesat XI-IV 30 Aug 19:03:12 19:08:15 43° 262° (W) 19:13:19 437.490
HO-68 30 Aug 19:07:40 19:12:48 23° 58° (ENE) 19:18:11 435.675
O/OREOS (USA 219) 30 Aug 19:09:00 19:13:12 40° 106° (ESE) 19:17:30 437.305
BRITE-PL 30 Aug 19:23:56 19:28:04 48° 72° (ENE) 19:32:33 437.365/2234.400
CUBESAT XI-V 30 Aug 19:28:13 19:32:48 61° 285° (WNW) 19:37:23 437.345
CINEMA 3 30 Aug 19:41:14 19:43:08 13° 62° (ENE) 19:45:19 145.822/145.860
CUTE-I 30 Aug 19:50:45 19:54:12 17° 270° (W) 19:57:24 437.470
GOMX 1 30 Aug 19:59:39 20:04:04 68° 75° (ENE) 20:08:50 467.674
CUTE 1.7 + AOD 2 30 Aug 20:05:08 20:08:53 31° 71° (ENE) 20:12:42 437.475
Cosmos 2491 30 Aug 20:07:10 20:15:37 51° 75° (ENE) 20:24:08 435.465 / 435.565
YUBILEINY 30 Aug 20:16:46 20:23:14 25° 82° (E) 20:30:03 435.215
CANX-2 30 Aug 20:18:29 20:22:37 49° 74° (ENE) 20:26:47 2200.000
DOVE 4 30 Aug 20:19:49 20:24:19 66° 75° (ENE) 20:29:10 437.250
STRAND 1 30 Aug 20:21:46 20:26:53 75° 286° (WNW) 20:31:59 437.568
PRISM 30 Aug 20:30:34 20:34:41 72° 285° (WNW) 20:38:46 437.425
AIST 1 30 Aug 20:38:57 20:42:30 24° 270° (W) 20:45:57
Oscar 11 30 Aug 20:41:52 20:44:57 20° 67° (ENE) 20:48:08 145.826/435.025
SEEDS 30 Aug 20:42:19 20:46:32 65° 75° (ENE) 20:50:46 437.485
O/OREOS (USA 219) 30 Aug 20:49:19 20:52:50 21° 304° (NW) 20:56:17 437.305
HO-68 30 Aug 20:52:45 20:59:54 75° 256° (WSW) 21:07:08 435.675
BRITE-PL 30 Aug 21:04:30 21:07:05 15° 272° (W) 21:09:34 437.365/2234.400
COMPASS 1 30 Aug 21:06:29 21:10:42 85° 254° (WSW) 21:14:57 437.405
CUBEBUG 2 30 Aug 21:14:32 21:18:58 49° 73° (ENE) 21:23:33 437.445
CINEMA 3 30 Aug 21:15:02 21:19:41 76° 260° (W) 21:24:35 145.822/145.860
AAUSAT CUBESAT 2 30 Aug 21:17:55 21:22:07 75° 258° (WSW) 21:26:19 437.432
RS-15 30 Aug 21:20:35 21:28:36 21° 357° (N) 21:36:50 29.354- 29.394
ZACube-1 30 Aug 21:20:50 21:24:54 34° 70° (ENE) 21:29:04 437.345
UWE-3 30 Aug 21:24:20 21:28:44 48° 73° (ENE) 21:33:15 435.000/436.395/437.385
FUNcube-1 30 Aug 21:26:44 21:30:53 37° 72° (ENE) 21:35:09 145.935
GOMX 1 30 Aug 21:41:23 21:42:56 11° 275° (W) 21:44:13 467.674
CUTE 1.7 + AOD 2 30 Aug 21:41:26 21:44:51 22° 267° (W) 21:48:10 437.475
DELFI C3 30 Aug 21:51:21 21:55:23 72° 77° (ENE) 21:59:26 145.870
CANX-2 30 Aug 21:56:28 21:58:53 14° 270° (W) 22:01:05 2200.000
DOVE 4 30 Aug 22:00:47 22:02:45 12° 274° (W) 22:04:30 437.250
Cosmos 2491 30 Aug 22:04:33 22:12:14 35° 274° (W) 22:19:46 435.465 / 435.565
DX 1 30 Aug 22:07:19 22:10:49 25° 68° (ENE) 22:14:25 434.975-435.025
Cosmos 2504 30 Aug 22:07:45 22:11:44 15° 77° (ENE) 22:16:23 435.465 / 435.565
ESTCUBE 1 30 Aug 22:08:12 22:10:00 13° 63° (ENE) 22:11:59 437.505/2401.250
YUBILEINY 30 Aug 22:10:36 22:19:20 70° 280° (W) 22:28:10 435.215
HUMSAT D 30 Aug 22:16:22 22:20:33 51° 74° (ENE) 22:24:47 437.325/437.525
Oscar 11 30 Aug 22:16:49 22:20:53 37° 263° (W) 22:24:57 145.826/435.025
UKube-1 30 Aug 22:21:37 22:25:24 31° 70° (ENE) 22:29:16 .
SEEDS 30 Aug 22:21:58 22:22:50 10° 272° (W) 22:23:25 437.485
AISAT 30 Aug 22:24:12 22:27:44 25° 68° (ENE) 22:31:24 437.250
CUBEBUG 1 30 Aug 22:29:43 22:32:21 16° 66° (ENE) 22:35:08 437.445
UNISAT 6 30 Aug 22:33:47 22:36:54 18° 91° (E) 22:40:05 437.425
50 SAT 30 Aug 22:39:23 22:43:03 38° 72° (ENE) 22:46:45 437.505
M-CUBED/EXP-1 PRIME 30 Aug 22:40:44 22:42:10 12° 93° (E) 22:43:45 437.505
HO-68 30 Aug 22:46:33 22:49:02 11° 276° (W) 22:50:55 435.675
VELOX 1 30 Aug 22:52:03 22:56:15 46° 72° (ENE) 23:00:29 145.980
CUBEBUG 2 30 Aug 22:52:56 22:55:59 17° 271° (W) 22:58:55 437.445
ZACube-1 30 Aug 22:57:39 23:01:19 23° 267° (W) 23:04:56 437.345
QB50P1 30 Aug 22:58:11 22:59:03 11° 88° (E) 23:00:12 145.935-145.965
TIGRISAT 30 Aug 23:02:06 23:06:18 35° 96° (E) 23:10:25 435.000
UWE-3 30 Aug 23:02:33 23:05:35 17° 270° (W) 23:08:28 435.000/436.395/437.385
FUNcube-1 30 Aug 23:03:53 23:07:21 21° 268° (W) 23:10:45 145.935
ANTELSAT 30 Aug 23:18:26 23:22:58 55° 100° (E) 23:27:21 437.575/2403.000
CUSAT 1 30 Aug 23:30:22 23:32:21 14° 82° (E) 23:34:49 437.405
BEESAT 3 30 Aug 23:31:24 23:34:38 23° 47° (NE) 23:37:52 437.485
RS-15 30 Aug 23:36:04 23:46:07 32° 31° (NNE) 23:56:42 29.354- 29.394
TISAT 1 30 Aug 23:39:02 23:41:33 16° 66° (ENE) 23:44:14 437.305
BEESAT 2 30 Aug 23:41:39 23:44:52 22° 46° (NE) 23:48:06 435.950
ESTCUBE 1 30 Aug 23:41:53 23:46:21 68° 259° (W) 23:50:50 437.505/2401.250
DX 1 30 Aug 23:43:11 23:46:58 29° 264° (W) 23:50:44 434.975-435.025
DANDE 30 Aug 23:50:42 23:51:37 11° 81° (E) 23:52:49 436.750
HUMSAT D 30 Aug 23:54:20 23:56:38 14° 271° (W) 23:58:45 437.325/437.525
Cosmos 2504 30 Aug 23:54:38 00:02:41 82° 96° (E) 00:11:17 435.465 / 435.565
POLYITAN 1 30 Aug 23:56:17 00:00:31 51° 99° (E) 00:04:43 437.675
UKube-1 30 Aug 23:58:10 00:01:35 22° 266° (W) 00:04:56 .
POPSAT HIP 1 30 Aug 23:59:22 00:03:36 54° 100° (E) 00:07:49 437.405
AISAT 31 Aug 00:00:19 00:04:12 30° 264° (W) 00:08:05 437.250
DUCHIFAT 1 31 Aug 00:00:55 00:05:08 54° 100° (E) 00:09:20 145.980
SPROUT 31 Aug 00:04:13 00:08:22 52° 74° (ENE) 00:12:35 437.525
CUBEBUG 1 31 Aug 00:04:14 00:08:22 45° 261° (W) 00:12:33 437.445
AUBIESAT-1 31 Aug 00:09:17 00:13:15 65° 291° (WNW) 00:16:52 437.475
UNISAT 6 31 Aug 00:09:35 00:13:55 41° 288° (WNW) 00:18:07 437.425
AIST 2 31 Aug 00:10:51 00:12:22 12° 38° (NE) 00:14:03 435.215
M-CUBED/EXP-1 PRIME 31 Aug 00:13:30 00:17:26 48° 292° (WNW) 00:21:01 437.505
BUGSAT 1 31 Aug 00:13:50 00:17:57 47° 99° (E) 00:22:04 437.445
YUBILEINY 31 Aug 00:13:54 00:18:18 14° 305° (NW) 00:22:05 435.215
SO-50 31 Aug 00:14:56 00:15:13 10° 107° (ESE) 00:15:49 436.795
50 SAT 31 Aug 00:15:16 00:17:46 16° 269° (W) 00:20:06 437.505
QB50P2 31 Aug 00:15:58 00:20:18 88° 99° (E) 00:24:36 145.880/145.840
NANOSAT C BR1 31 Aug 00:17:56 00:22:15 88° 102° (ESE) 00:26:32 145.865
SWISSCUBE 31 Aug 00:22:36 00:23:03 10° 61° (ENE) 00:23:46 437.505
VELOX 1 31 Aug 00:30:21 00:33:05 16° 269° (W) 00:35:41 145.980
QB50P1 31 Aug 00:31:09 00:35:25 64° 286° (WNW) 00:39:39 145.935-145.965
TIGRISAT 31 Aug 00:39:14 00:42:50 23° 293° (WNW) 00:46:17 435.000
ANTELSAT 31 Aug 00:56:34 00:59:17 15° 296° (WNW) 01:01:48 437.575/2403.000
ITUPSAT 1 31 Aug 00:57:12 01:00:41 21° 66° (ENE) 01:04:18 437.325
BEESAT 3 31 Aug 01:08:57 01:12:38 34° 244° (WSW) 01:16:13 437.485
CUSAT 1 31 Aug 01:10:31 01:14:08 41° 288° (WNW) 01:18:53 437.405
TISAT 1 31 Aug 01:12:57 01:16:59 44° 261° (W) 01:21:03 437.305
BEESAT 2 31 Aug 01:19:16 01:23:01 36° 244° (WSW) 01:26:40 435.950
BEESAT 31 Aug 01:29:58 01:34:29 44° 71° (ENE) 01:39:02 436.000
DANDE 31 Aug 01:30:47 01:33:58 37° 288° (WNW) 01:38:06 436.750
POLYITAN 1 31 Aug 01:33:30 01:36:01 15° 295° (WNW) 01:38:21 437.675
Oscar 19 31 Aug 01:33:44 01:37:48 24° 93° (E) 01:41:59 437.125/150
POPSAT HIP 1 31 Aug 01:36:42 01:39:03 14° 295° (WNW) 01:41:13 437.405
DUCHIFAT 1 31 Aug 01:38:12 01:40:31 14° 295° (WNW) 01:42:40 145.980
SPROUT 31 Aug 01:42:36 01:44:50 13° 271° (W) 01:46:50 437.525
AIST 2 31 Aug 01:47:27 01:51:40 85° 57° (ENE) 01:55:47 435.215
RS-15 31 Aug 01:48:36 02:00:31 87° 58° (ENE) 02:12:50 29.354- 29.394
Cosmos 2504 31 Aug 01:50:01 01:56:09 21° 298° (WNW) 02:02:08 435.465 / 435.565
SO-50 31 Aug 01:50:16 01:55:04 90° 123° (ESE) 02:00:02 436.795
BUGSAT 1 31 Aug 01:50:25 01:53:04 16° 294° (WNW) 01:55:33 437.445
SWISSCUBE 31 Aug 01:55:28 02:00:14 88° 76° (ENE) 02:05:02 437.505
Gurwin Techsat 1B 31 Aug 02:06:49 02:09:38 15° 89° (E) 02:12:43 435.225
PCSat 31 Aug 02:07:37 02:12:52 54° 114° (ESE) 02:18:10 145.827
ITAMSAT 1 31 Aug 02:30:26 02:34:06 20° 92° (E) 02:37:56 435.822/435.867
ITUPSAT 1 31 Aug 02:33:47 02:38:20 42° 262° (W) 02:42:52 437.325
STARS 31 Aug 02:43:15 02:46:46 24° 68° (ENE) 02:50:23 437.465
Cosmos 2499 31 Aug 02:45:44 02:46:03 10° 74° (ENE) 02:47:11 435.465 / 435.565
GONETS M04 31 Aug 02:57:48 03:06:14 60° 92° (E) 03:14:46
KKS-1 31 Aug 02:58:16 03:02:37 59° 74° (ENE) 03:07:02 437.445
JAS-2 31 Aug 03:03:05 03:08:51 28° 90° (E) 03:14:13 435.910
MOZHAYETS 4 31 Aug 03:06:48 03:07:46 11° 63° (ENE) 03:08:59
BEESAT 31 Aug 03:09:06 03:12:34 19° 268° (W) 03:15:53 436.000
Oscar 19 31 Aug 03:12:27 03:17:21 42° 290° (WNW) 03:22:11 437.125/150
SO-50 31 Aug 03:33:19 03:36:22 16° 323° (NW) 03:39:21 436.795
Gurwin Techsat 1B 31 Aug 03:44:55 03:50:12 67° 287° (WNW) 03:55:28 435.225
PCSat 31 Aug 03:52:15 03:56:39 24° 313° (NW) 04:00:59 145.827
HORYU 2 31 Aug 04:02:00 04:05:01 18° 92° (E) 04:08:10 437.375
RS-15 31 Aug 04:02:38 04:11:54 26° 256° (WSW) 04:20:43 29.354- 29.394
ITAMSAT 1 31 Aug 04:08:56 04:13:55 49° 289° (WNW) 04:18:53 435.822/435.867
STARS 31 Aug 04:19:10 04:23:06 30° 264° (W) 04:27:00 437.465
AO-7 31 Aug 04:19:25 04:27:03 40° 98° (E) 04:34:45 29.400- 29.500
VERMONT LUNAR 31 Aug 04:21:17 04:23:58 31° 158° (SSE) 04:26:40 437.305
Cosmos 2499 31 Aug 04:29:21 04:37:33 61° 92° (E) 04:46:15 435.465 / 435.565
KKS-1 31 Aug 04:37:40 04:39:43 13° 271° (W) 04:41:33 437.445
MOZHAYETS 4 31 Aug 04:39:45 04:44:23 83° 258° (WSW) 04:49:01
JAS-2 31 Aug 04:47:29 04:54:20 50° 291° (WNW) 05:00:21 435.910
GONETS M04 31 Aug 04:56:13 05:03:42 30° 293° (WNW) 05:11:00
CUBESAT XI-V 31 Aug 04:56:36 04:58:43 13° 64° (ENE) 05:01:03 437.345
O/OREOS (USA 219) 31 Aug 05:18:53 05:23:31 75° 67° (ENE) 05:28:05 437.305
HORYU 2 31 Aug 05:37:39 05:41:52 41° 289° (WNW) 05:46:01 437.375
VERMONT LUNAR 31 Aug 05:57:15 06:00:14 81° 174° (S) 06:03:13 437.305
STRAND 1 31 Aug 06:00:14 06:03:41 19° 64° (ENE) 06:07:18 437.568
AO-7 31 Aug 06:12:09 06:19:59 46° 296° (WNW) 06:27:41 29.400- 29.500
PHONESAT 2.4 31 Aug 06:22:54 06:25:55 29° 156° (SSE) 06:28:57 2401.200-2431.200
Cosmos 2499 31 Aug 06:24:00 06:31:22 30° 293° (WNW) 06:38:49 435.465 / 435.565
CUTE-I 31 Aug 06:26:19 06:30:33 24° 93° (E) 06:34:53 437.470
YUBILEINY 31 Aug 06:28:27 06:30:32 11° 52° (NE) 06:33:19 435.215
CUBESAT XI-V 31 Aug 06:31:07 06:35:40 65° 259° (W) 06:40:15 437.345
O/OREOS (USA 219) 31 Aug 07:01:48 07:02:22 10° 262° (W) 07:02:37 437.305
PRISM 31 Aug 07:19:57 07:24:03 78° 76° (ENE) 07:28:09 437.425
Cubesat XI-IV 31 Aug 07:20:16 07:25:37 78° 103° (ESE) 07:30:58 437.490
BRITE-PL 31 Aug 07:28:42 07:32:40 21° 91° (E) 07:36:55 437.365/2234.400
AIST 1 31 Aug 07:31:41 07:34:10 16° 87° (E) 07:36:50
VERMONT LUNAR 31 Aug 07:33:40 07:36:38 69° 192° (SSW) 07:39:36 437.305
STRAND 1 31 Aug 07:37:33 07:42:31 53° 260° (W) 07:47:31 437.568
PHONESAT 2.4 31 Aug 08:00:11 08:03:35 78° 172° (S) 08:07:00 2401.200-2431.200
GOMX 1 31 Aug 08:01:43 08:06:05 25° 92° (E) 08:10:35 467.674
CUTE-I 31 Aug 08:05:48 08:10:49 42° 290° (WNW) 08:15:47 437.470
AO-7 31 Aug 08:09:47 08:10:52 10° 317° (NW) 08:11:26 29.400- 29.500
DOVE 4 31 Aug 08:19:35 08:23:34 22° 91° (E) 08:27:41 437.250
YUBILEINY 31 Aug 08:21:07 08:29:50 60° 77° (ENE) 08:38:31 435.215
HO-68 31 Aug 08:21:52 08:27:02 22° 90° (E) 08:32:27 435.675
ISS 31 Aug 08:24:08 08:26:07 16° 132° (SE) 08:28:11 145.825
SEEDS 31 Aug 08:29:30 08:30:20 11° 88° (E) 08:31:26 437.485
SO-50 31 Aug 08:43:09 08:45:40 14° 35° (NE) 08:48:18 436.795
COMPASS 1 31 Aug 08:51:23 08:53:46 15° 90° (E) 08:56:18 437.405
AAUSAT CUBESAT 2 31 Aug 09:02:04 09:04:43 17° 91° (E) 09:07:30 437.432
Cubesat XI-IV 31 Aug 09:02:12 09:05:08 15° 299° (WNW) 09:07:51 437.490
BRITE-PL 31 Aug 09:06:07 09:11:29 55° 287° (WNW) 09:17:00 437.365/2234.400
AIST 1 31 Aug 09:07:31 09:11:31 39° 283° (WNW) 09:15:32
Cosmos 2491 31 Aug 09:07:43 09:16:10 59° 92° (E) 09:24:40 435.465 / 435.565
CUBEBUG 2 31 Aug 09:08:38 09:09:44 11° 86° (E) 09:11:07 437.445
VERMONT LUNAR 31 Aug 09:10:25 09:12:48 21° 206° (SSW) 09:15:09 437.305
CINEMA 3 31 Aug 09:10:38 09:14:56 29° 93° (E) 09:19:12 145.822/145.860
UWE-3 31 Aug 09:18:12 09:18:13 10° 86° (E) 09:18:34 435.000/436.395/437.385
